Weather History for Calgary, AB

Change the Weather History Date:

Tuesday, May 28, 2013

  Actual Average Record
Temperature  
Mean Temperature 54 °F -  
Max Temperature 63 °F 69 °F 78 °F (2003)
Min Temperature 46 °F 44 °F 35 °F (2005)
Degree Days  
Heating Degree Days 10    
Growing Degree Days 4 (Base 50)    
Moisture  
Dew Point 46 °F    
Average Humidity 74    
Maximum Humidity 93    
Minimum Humidity 50    
Precipitation  
Precipitation 0.08 in 0.10 in - ()
Sea Level Pressure  
Sea Level Pressure 29.78 in    
Wind  
Wind Speed 6 mph ()    
Max Wind Speed 17 mph    
Max Gust Speed 20 mph    
Visibility 15.4 miles    
Events Rain , Thunderstorm    
Averages and records for this station are not official NWS values.
T = Trace of Precipitation, MM = Missing Value Source: Averaged Metar Reports

Daily Weather History Graph

Daily Weather History Graph

Search for Another Location

Airport:

Trip Planner

Search our weather history database for the weather conditions in past years. The results will help you decide how hot, cold, wet, or windy it might be!

Date:

Astronomy

May. 28, 2013 Rise Set
Actual Time 5:29 AM MDT 9:37 PM MDT
Civil Twilight 4:45 AM MDT 10:22 PM MDT
Nautical Twilight 3:42 AM MDT 11:25 PM MDT
Astronomical Twilight 2:05 AM MDT 1:01 AM MDT
Moon 12:09 AM MDT (5/28) 9:34 AM MDT (5/28)
Length of Visible Light 17h 36m
Length of Day
16h 08m
Waning Gibbous, 82% of the Moon is Illuminated
May 28
Waning Gibbous
May 31
Last Quarter
Jun 8
New
Jun 16
First Quarter
Jun 23
Full

Hourly Weather History & Observations

Time (MDT) Temp. Windchill Dew Point Humidity Pressure Visibility Wind Dir Wind Speed Gust Speed Precip Events Conditions
12:00 AM 51 °F - 46 °F 78% 29.79 in 15 mi NE 5.8 mph - -   Partly Cloudy
12:00 AM 51.8 °F - 46.4 °F 82% 29.79 in 15.0 mi ENE 6.9 mph - N/A   Mostly Cloudy
1:00 AM 50.0 °F - 44.6 °F 82% 29.78 in 15.0 mi NE 5.8 mph - N/A   Scattered Clouds
2:00 AM 48.2 °F - 44.6 °F 87% 29.77 in 15.0 mi Calm Calm - N/A   Scattered Clouds
3:00 AM 50.0 °F - 46.4 °F 87% 29.77 in 15.0 mi NNW 3.5 mph - N/A   Scattered Clouds
4:00 AM 48.2 °F - 46.4 °F 93% 29.78 in 15.0 mi NNW 5.8 mph - N/A Rain Light Rain Showers
5:00 AM 46.4 °F 45.2 °F 44.6 °F 93% 29.77 in 15.0 mi WNW 3.5 mph - N/A   Mostly Cloudy
6:00 AM 47 °F - 44 °F 86% 29.78 in 15 mi NNW 5.8 mph - -   Partly Cloudy
6:00 AM 46.4 °F 43.5 °F 44.6 °F 93% 29.77 in 15.0 mi NW 5.8 mph - N/A   Mostly Cloudy
7:00 AM 50.0 °F - 46.4 °F 87% 29.77 in 15.0 mi NNW 6.9 mph - N/A   Mostly Cloudy
8:00 AM 50.0 °F - 46.4 °F 87% 29.78 in 20.0 mi NNW 3.5 mph - N/A   Overcast
9:00 AM 51.8 °F - 48.2 °F 88% 29.79 in 20.0 mi West 3.5 mph - N/A   Mostly Cloudy
10:00 AM 57.2 °F - 48.2 °F 72% 29.79 in 25.0 mi ESE 3.5 mph - N/A   Mostly Cloudy
11:00 AM 59.0 °F - 46.4 °F 63% 29.78 in 30.0 mi South 10.4 mph 17.3 mph N/A   Mostly Cloudy
12:00 PM 60 °F - 46 °F 50% 29.78 in 37 mi SSW 8.1 mph - -   Overcast
12:00 PM 59.0 °F - 46.4 °F 63% 29.78 in 40.0 mi South 8.1 mph - N/A   Overcast
12:22 PM 59.0 °F - 44.6 °F 59% 29.78 in 40.0 mi SSW 10.4 mph - N/A Rain Light Rain Showers
12:47 PM 59.0 °F - 44.6 °F 59% 29.77 in 40.0 mi SE 8.1 mph - N/A Rain , Thunderstorm Light Thunderstorms and Rain
1:00 PM 59.0 °F - 46.4 °F 63% 29.78 in 40.0 mi SE 6.9 mph - N/A Rain , Thunderstorm Light Thunderstorms and Rain
1:15 PM 53.6 °F - 42.8 °F 67% 29.79 in 30.0 mi SSW 10.4 mph 19.6 mph N/A Rain , Thunderstorm Light Thunderstorms and Rain
1:38 PM 51.8 °F - 44.6 °F 76% 29.81 in 30.0 mi SSW 15.0 mph - N/A Rain , Thunderstorm Light Thunderstorms and Rain
2:00 PM 50.0 °F - 46.4 °F 87% 29.82 in 30.0 mi West 8.1 mph 17.3 mph N/A Rain , Thunderstorm Light Thunderstorms and Rain
2:22 PM 51.8 °F - 46.4 °F 82% 29.81 in 40.0 mi SW 6.9 mph - N/A Rain Light Rain Showers
3:00 PM 57.2 °F - 46.4 °F 67% 29.78 in 40.0 mi SSE 8.1 mph - N/A Rain Light Rain Showers
3:12 PM 59.0 °F - 44.6 °F 59% 29.78 in 40.0 mi South 8.1 mph - N/A   Mostly Cloudy
4:00 PM 62.6 °F - 46.4 °F 55% 29.76 in 40.0 mi ESE 11.5 mph - N/A   Mostly Cloudy
4:25 PM 60.8 °F - 48.2 °F 63% 29.77 in 30.0 mi ESE 9.2 mph - N/A Rain Light Rain Showers
4:43 PM 62.6 °F - 48.2 °F 59% 29.76 in 35.0 mi ESE 6.9 mph - N/A   Mostly Cloudy
5:00 PM 59.0 °F - 48.2 °F 67% 29.76 in 40.0 mi East 8.1 mph - N/A   Scattered Clouds
6:00 PM 60 °F - 46 °F 50% 29.76 in 37 mi East 11.5 mph - -   Partly Cloudy
6:00 PM 59.0 °F - 46.4 °F 63% 29.75 in 40.0 mi East 11.5 mph - N/A   Mostly Cloudy
7:00 PM 57.2 °F - 46.4 °F 67% 29.76 in 40.0 mi East 17.3 mph - N/A   Mostly Cloudy
8:00 PM 53.6 °F - 48.2 °F 82% 29.76 in 40.0 mi ESE 12.7 mph - N/A   Mostly Cloudy
9:00 PM 51.8 °F - 44.6 °F 76% 29.75 in 25.0 mi SE 5.8 mph - N/A   Mostly Cloudy
10:00 PM 53.6 °F - 46.4 °F 77% 29.77 in 10.0 mi SSE 12.7 mph - N/A   Mostly Cloudy
11:00 PM 53.6 °F - 46.4 °F 77% 29.77 in 15.0 mi South 10.4 mph 18.4 mph N/A   Mostly Cloudy